{"data":{"norad_id":53050,"intl_designator":"2022-077H","name":"STARLINK-4343","alt_names":[],"object_type":"PAYLOAD","status":"ACTIVE","operator":null,"country":"US","launch_date":"2022-07-11","launch_site_code":"AFWTR","launch_vehicle":null,"mission":null,"orbit_class":"UNKNOWN","rcs_meters":null,"size_class":null,"mass_kg":null,"dimensions":null,"purposes":["comms"],"wikipedia_slug":null,"has_3d_model":false,"image_url":null,"decayed_at":null,"tle_current":{"epoch":"2026-05-24T23:13:37.291008Z","epoch_age_seconds":86700,"freshness":"FRESH","line1":"1 53050U 22077H   26144.96779272 -.00000872  00000+0 -56397-4 0  9999","line2":"2 53050  97.4488 325.9984 0001826  82.7455 277.3980 15.05653255212450","mean_motion":15.05653255,"eccentricity":0.0001826,"inclination_deg":97.4488,"raan_deg":325.9984,"arg_perigee_deg":82.7455,"mean_anomaly_deg":277.398,"bstar":-5.6397e-5,"rev_number":21245,"period_min":95.639550156586,"perigee_km":548.23618293752,"apogee_km":550.76615639709,"semimajor_km":6927.6381696673,"source":"CELESTRAK","updated_at":"2026-05-25T13:38:17.286925Z"}}}